• In Netherlands
  • List of Countries
  • For 7 days
  • Water Temperature
  • Satellite Maps
  • Weather Map
  • Weather Widgets
  • user-avatar
    Login

    Hourly Weather Sharan

    Today, 28 June, Wednesday

    Time Temperature Precipitation Wind Pressure Humidity
    00:00 +25°C° 0.7 mm 4 mps 587 mmHg 40%
    01:00 +25°C° 0.7 mm 3 mps 587 mmHg 43%
    02:00 +24°C° 0.7 mm 3 mps 586 mmHg 45%
    03:00 +24°C° 0.1 mm 3 mps 586 mmHg 45%
    04:00 +23°C° 0.1 mm 2 mps 586 mmHg 46%
    05:00 +23°C° 0 mm 2 mps 586 mmHg 47%
    06:00 +23°C° 0 mm 2 mps 586 mmHg 45%
    07:00 +24°C° 0 mm 2 mps 587 mmHg 43%
    08:00 +24°C° 0 mm 2 mps 587 mmHg 41%
    09:00 +25°C° 0 mm 2 mps 587 mmHg 37%
    10:00 +26°C° 0 mm 2 mps 588 mmHg 34%
    11:00 +27°C° 0 mm 2 mps 588 mmHg 29%
    12:00 +28°C° 0 mm 2 mps 588 mmHg 27%
    13:00 +29°C° 0 mm 3 mps 588 mmHg 25%
    14:00 +30°C° 0 mm 3 mps 588 mmHg 22%
    15:00 +30°C° 0.1 mm 4 mps 587 mmHg 22%
    16:00 +30°C° 0.1 mm 4 mps 587 mmHg 22%
    17:00 +29°C° 0 mm 5 mps 587 mmHg 26%
    18:00 +28°C° 0.4 mm 5 mps 587 mmHg 30%
    19:00 +27°C° 0.4 mm 6 mps 586 mmHg 35%
    20:00 +26°C° 0.4 mm 6 mps 586 mmHg 39%
    21:00 +25°C° 0.5 mm 5 mps 586 mmHg 43%
    22:00 +25°C° 0.5 mm 4 mps 586 mmHg 46%
    23:00 +24°C° 0.5 mm 3 mps 587 mmHg 49%

    Tomorrow, 29 June, Thursday

    Time Temperature Precipitation Wind Pressure Humidity
    00:00 +22°C° 0.5 mm 3 mps 586 mmHg 49%
    01:00 +23°C° 0.5 mm 2 mps 586 mmHg 50%
    02:00 +23°C° 0.5 mm 1 mps 586 mmHg 50%
    03:00 +22°C° 0.1 mm 1 mps 586 mmHg 49%
    04:00 +22°C° 0.1 mm 1 mps 586 mmHg 48%
    05:00 +21°C° 0.1 mm 2 mps 586 mmHg 47%
    06:00 +21°C° 0 mm 2 mps 587 mmHg 44%
    07:00 +23°C° 0 mm 2 mps 587 mmHg 41%
    08:00 +23°C° 0 mm 2 mps 587 mmHg 38%
    09:00 +24°C° 0 mm 1 mps 587 mmHg 35%
    10:00 +25°C° 0 mm 1 mps 587 mmHg 32%
    11:00 +24°C° 0 mm 0 mps 588 mmHg 30%
    12:00 +27°C° 0 mm 1 mps 588 mmHg 27%
    13:00 +28°C° 0 mm 1 mps 587 mmHg 25%
    14:00 +29°C° 0 mm 2 mps 587 mmHg 22%
    15:00 +29°C° 0 mm 2 mps 587 mmHg 22%
    16:00 +30°C° 0 mm 2 mps 587 mmHg 21%
    17:00 +30°C° 0 mm 3 mps 587 mmHg 20%
    18:00 +30°C° 0 mm 3 mps 586 mmHg 22%
    19:00 +29°C° 0 mm 2 mps 586 mmHg 23%
    20:00 +29°C° 0 mm 2 mps 586 mmHg 25%
    21:00 +28°C° 0.2 mm 3 mps 586 mmHg 30%
    22:00 +27°C° 0.2 mm 4 mps 586 mmHg 35%
    23:00 +26°C° 0.2 mm 5 mps 586 mmHg 40%

    Day after tomorrow, 30 June, Friday

    Time Temperature Precipitation Wind Pressure Humidity
    00:00 +25°C° 0.6 mm 4 mps 586 mmHg 41%
    01:00 +25°C° 0.6 mm 3 mps 585 mmHg 43%
    02:00 +24°C° 0.6 mm 2 mps 585 mmHg 44%
    03:00 +24°C° 0.1 mm 2 mps 585 mmHg 44%
    04:00 +23°C° 0.1 mm 2 mps 585 mmHg 45%
    05:00 +23°C° 0.1 mm 2 mps 585 mmHg 45%
    06:00 +23°C° 0 mm 2 mps 585 mmHg 41%
    07:00 +24°C° 0 mm 2 mps 585 mmHg 37%
    08:00 +24°C° 0 mm 2 mps 586 mmHg 33%
    09:00 +25°C° 0 mm 2 mps 586 mmHg 30%
    10:00 +26°C° 0 mm 1 mps 586 mmHg 28%
    11:00 +27°C° 0 mm 1 mps 586 mmHg 26%
    12:00 +28°C° 0 mm 1 mps 586 mmHg 23%
    13:00 +29°C° 0 mm 1 mps 586 mmHg 20%
    14:00 +30°C° 0 mm 2 mps 586 mmHg 17%
    15:00 +31°C° 0 mm 2 mps 586 mmHg 16%
    16:00 +31°C° 0 mm 2 mps 586 mmHg 14%
    17:00 +31°C° 0 mm 2 mps 585 mmHg 13%
    18:00 +31°C° 0 mm 2 mps 585 mmHg 15%
    19:00 +31°C° 0 mm 2 mps 585 mmHg 17%
    20:00 +30°C° 0 mm 3 mps 586 mmHg 18%
    21:00 +29°C° 0.2 mm 3 mps 585 mmHg 23%
    22:00 +28°C° 0.2 mm 4 mps 585 mmHg 28%
    23:00 +27°C° 0.2 mm 5 mps 585 mmHg 33%

    1 July, Saturday

    Time Temperature Precipitation Wind Pressure Humidity
    00:00 +26°C° 0.9 mm 4 mps 585 mmHg 35%
    01:00 +26°C° 0.9 mm 3 mps 585 mmHg 37%
    02:00 +25°C° 0.9 mm 3 mps 585 mmHg 39%
    03:00 +25°C° 0.1 mm 3 mps 585 mmHg 38%
    04:00 +24°C° 0.1 mm 3 mps 585 mmHg 37%
    05:00 +24°C° 0.1 mm 3 mps 584 mmHg 35%
    06:00 +25°C° 0 mm 3 mps 585 mmHg 32%
    07:00 +25°C° 0 mm 3 mps 585 mmHg 29%
    08:00 +26°C° 0 mm 3 mps 586 mmHg 25%
    09:00 +27°C° 0 mm 3 mps 586 mmHg 24%
    10:00 +28°C° 0 mm 2 mps 586 mmHg 22%
    11:00 +29°C° 0 mm 2 mps 587 mmHg 21%
    12:00 +29°C° 0 mm 2 mps 587 mmHg 19%
    13:00 +30°C° 0 mm 2 mps 587 mmHg 16%
    14:00 +31°C° 0 mm 1 mps 587 mmHg 14%
    15:00 +32°C° 0 mm 2 mps 586 mmHg 13%
    16:00 +32°C° 0 mm 2 mps 586 mmHg 11%
    17:00 +32°C° 0 mm 2 mps 586 mmHg 10%
    18:00 +32°C° 0 mm 2 mps 586 mmHg 11%
    19:00 +31°C° 0 mm 2 mps 586 mmHg 12%
    20:00 +31°C° 0 mm 3 mps 586 mmHg 12%
    21:00 +30°C° 0 mm 3 mps 586 mmHg 16%
    22:00 +29°C° 0 mm 3 mps 586 mmHg 20%
    23:00 +28°C° 0 mm 4 mps 586 mmHg 23%

    2 July, Sunday

    Time Temperature Precipitation Wind Pressure Humidity
    00:00 +27°C° 0 mm 4 mps 586 mmHg 26%
    01:00 +26°C° 0 mm 4 mps 585 mmHg 29%
    02:00 +26°C° 0 mm 4 mps 585 mmHg 32%
    03:00 +25°C° 0 mm 4 mps 585 mmHg 31%
    04:00 +23°C° 0 mm 4 mps 584 mmHg 30%
    05:00 +23°C° 0 mm 4 mps 584 mmHg 30%
    06:00 +23°C° 0 mm 4 mps 585 mmHg 28%
    07:00 +25°C° 0 mm 3 mps 585 mmHg 27%
    08:00 +26°C° 0 mm 3 mps 586 mmHg 26%
    09:00 +27°C° 0 mm 3 mps 586 mmHg 25%
    10:00 +28°C° 0 mm 3 mps 586 mmHg 25%
    11:00 +29°C° 0 mm 2 mps 587 mmHg 24%
    12:00 +29°C° 0 mm 2 mps 587 mmHg 22%
    13:00 +30°C° 0 mm 2 mps 587 mmHg 20%
    14:00 +31°C° 0 mm 1 mps 586 mmHg 17%
    15:00 +31°C° 0 mm 2 mps 586 mmHg 16%
    16:00 +32°C° 0 mm 2 mps 586 mmHg 15%
    17:00 +32°C° 0 mm 2 mps 586 mmHg 14%
    18:00 +32°C° 0 mm 2 mps 586 mmHg 16%
    19:00 +31°C° 0 mm 2 mps 586 mmHg 17%
    20:00 +31°C° 0 mm 3 mps 586 mmHg 19%
    21:00 +30°C° 0.2 mm 3 mps 586 mmHg 23%
    22:00 +29°C° 0.2 mm 4 mps 586 mmHg 27%
    23:00 +28°C° 0.2 mm 4 mps 586 mmHg 31%

    3 July, Monday

    Time Temperature Precipitation Wind Pressure Humidity
    00:00 +27°C° 0.1 mm 4 mps 585 mmHg 33%
    01:00 +26°C° 0.1 mm 4 mps 585 mmHg 35%
    02:00 +26°C° 0.1 mm 3 mps 585 mmHg 36%
    03:00 +25°C° 0 mm 3 mps 585 mmHg 37%
    04:00 +24°C° 0 mm 3 mps 585 mmHg 37%
    05:00 +24°C° 0 mm 3 mps 585 mmHg 37%
    06:00 +24°C° 0 mm 3 mps 585 mmHg 35%
    07:00 +25°C° 0 mm 3 mps 586 mmHg 33%
    08:00 +26°C° 0 mm 3 mps 586 mmHg 31%
    09:00 +27°C° 0 mm 2 mps 586 mmHg 29%
    10:00 +27°C° 0 mm 2 mps 586 mmHg 27%
    11:00 +28°C° 0 mm 1 mps 587 mmHg 25%
    12:00 +29°C° 0 mm 2 mps 587 mmHg 21%
    13:00 +30°C° 0 mm 2 mps 586 mmHg 18%
    14:00 +31°C° 0 mm 3 mps 586 mmHg 14%
    15:00 +33°C° 0 mm 3 mps 586 mmHg 14%
    16:00 +33°C° 0 mm 3 mps 586 mmHg 13%
    17:00 +33°C° 0 mm 4 mps 586 mmHg 12%
    18:00 +33°C° 0 mm 3 mps 586 mmHg 13%
    19:00 +31°C° 0 mm 3 mps 586 mmHg 13%
    20:00 +31°C° 0 mm 3 mps 586 mmHg 14%
    21:00 +30°C° 0 mm 3 mps 586 mmHg 17%
    22:00 +29°C° 0 mm 3 mps 586 mmHg 19%
    23:00 +28°C° 0 mm 3 mps 586 mmHg 21%
    Show more